Location: Grasslands National Park East Block
(49.0708°N, 106.5295°W)
Time: 10:00:04
(UTC-06:00)

Vanguard 1 Rocket - Pass Details

Date: 23 September 2019
Orbit: 650 x 4226 km, 34.3° (Epoch: 13 October)

Event Time Altitude Azimuth Distance (km) Brightness Sun altitude
Rises 22:10:49 0° 269° (W) 7,458 12.7 -29.5°
Reaches altitude 10° 22:17:11 10° 261° (W) 5,860 11.9 -30.3°
Maximum altitude 22:30:15 32° 208° (SSW) 2,955 9.7 -31.8°
Enters shadow 22:31:34 31° 196° (SSW) 2,844 9.6 -32.0°
Drops below altitude 10° 22:37:53 10° 148° (SSE) 3,380 - -32.7°
Sets 22:40:29 0° 137° (SE) 4,016 - -33.0°
